COSMOS 1275 DEB, 39938

Orbit data source: Space-Track

COSMOS 1275 DEB, 39938 is space debris in LEO originally from a launch on Thu, 04 Jun 1981 UTC launched from the Plesetsk Missile And Space Complex (PKMTR). Debris objects in space refer to the collection of defunct objects orbiting the Earth. Examples of debris include non-operational satellites, rocket bodies, and fragments generated from explosions, collisions, or faulty payload assembly.

Loading next visibility...
Identifier
39938, 1981-053MY
Orbit
LEO
Country
Flag of CISCIS
Related business
Manufacturer
Unknown
Mission
Spacecraft
Bus & Motor
Unknown
Mass
Unknown
Launch date (UTC)
1981-06-04 (45 years ago)
Launch vehicle
Unknown
Launch site
Plesetsk Missile And Space Complex (PKMTR)
Object type
Payload
Rocket body
Debris
Shape & HBR
Unknown shape, 0.1 m
Radar Cross Section
Small (<0.1 m²)

Expand to show TLE details & history
Last TLE update: 4 days ago

TLE from 4 days ago
0 COSMOS 1275 DEB
1 39938U 81053MY  26147.22955028  .00001056  00000-0  11293-2 0  9992
2 39938  83.0674 129.2969 0135676  29.0513 331.8102 13.69058829596377
Epoch: 2026-05-27T05:30Z
TLE epoch observation values (Epoch: 2026-05-27T05:30:33.144Z)
Latitude
-0.00001°
Longitude
161.86717°
Altitude
917.872 km
Speed
7.437 km/s
True Right ascension
08h 37m 11s
True Declination
0° 00' 00"
Sunlit
Object was in daylight at epoch
Visualization orbit readout
Latitude
Unknown
Longitude
Unknown
Altitude
Unknown
Speed
Unknown
Apparent Right ascension
Unknown
Apparent Declination
Unknown
Sunlit
N/A
Visualization observer readout
Local Sidereal Time
07:42:50
Azimuth
Unknown
Elevation
Unknown
Doppler factor
Unknown
Orbital elements
Apogee altitude
1,100.208 km
Perigee altitude
899.998 km
Semi-major axis
7,378.24 km
Eccentricity
0.01357
Inclination
83.0674°
RAAN
129.2969°
Arg. of periapsis
29.0513°
True anomaly
331.06464°
Mean anomaly
331.8102°
Eccentric anomaly
331.43854°
Mean motion
3.42463 °/min
Orbital period
105.12 mins
BSTAR
0.0011293
Loading maneuver chart data...
Computing Atmospheric mass density...

Documentation

Showing up to 5 results
|